Home   Weather   Pasadena   Past weeks
Flag for USA

Past Weather in Pasadena, Texas, USA — Yesterday and Last 2 Weeks

Now
57 °F

Passing clouds.


Feels Like: 57 °F
Forecast: 80 / 59 °F
Wind: 3 mph from North

Location: Houston / Ellington

Current Time: Oct 18, 2019 at 6:40:14 am

Latest Report: Oct 18, 2019 at 5:50 am


Visibility: 10 mi

Pressure: 29.84 "Hg

Humidity: 88%

Dew Point: 54 °F

Location of PasadenaLocation

Past Weather in Pasadena — Graph

°F

Pasadena Temperature Yesterday

Maximum temperature yesterday: 66 °F (at 1:50 pm)
Minimum temperature yesterday: 59 °F (at 5:50 am)
Average temperature yesterday: 62 °F

High & Low Weather Summary for the Past Weeks

 TemperatureHumidityPressure
High93 °F (Oct 4, 3:50 pm)100% (Oct 10, 4:50 am)30.20 "Hg (Oct 10, 4:50 am)
Low52 °F (Oct 11, 8:50 pm)41% (Oct 4, 3:50 pm)29.81 "Hg (Oct 15, 5:50 pm)
Average75 °F71%29.97 "Hg
* Reported Oct 3 4:50 am — Oct 18 4:50 am, Pasadena. Weather by CustomWeather, © 2019

Note: Actual official high and low records may vary slightly from our data, if they occured in-between our weather recording intervals... More about our weather records

Advertising

Pasadena Weather History for the Previous 24 Hours

Scroll right to see more
 ConditionsComfort  
Time TempWeatherWind HumidityBarometerVisibility
4:50 am
Fri, Oct 18
57 °FPassing clouds.No wind88%29.82 "Hg10 mi
3:50 am57 °FPartly cloudy.No wind88%29.84 "Hg10 mi
2:50 am59 °FPassing clouds.3 mph77%29.88 "Hg10 mi
1:50 am59 °FPartly cloudy.No wind77%29.89 "Hg10 mi
12:50 am59 °FPassing clouds.6 mph77%29.88 "Hg10 mi
11:50 pm
Thu, Oct 17
59 °FPassing clouds.6 mph77%29.92 "Hg10 mi
10:50 pm61 °FPartly cloudy.3 mph72%29.94 "Hg10 mi
9:50 pm63 °FPassing clouds.7 mph68%29.93 "Hg10 mi
8:50 pm63 °FPassing clouds.7 mph68%29.92 "Hg10 mi
7:50 pm63 °FPassing clouds.7 mph68%29.92 "Hg10 mi
6:50 pm64 °FPassing clouds.5 mph60%29.93 "Hg10 mi
5:50 pm66 °FPartly sunny.6 mph56%29.93 "Hg10 mi
4:50 pm66 °FMild.7 mph56%29.95 "Hg10 mi
3:50 pm66 °FBroken clouds.6 mph56%29.95 "Hg10 mi
2:50 pm66 °FPartly sunny.7 mph56%29.95 "Hg10 mi
1:50 pm66 °FPartly sunny.7 mph56%29.97 "Hg10 mi
12:50 pm63 °FBroken clouds.6 mph59%29.98 "Hg10 mi
11:50 am61 °FPartly sunny.7 mph63%30.01 "Hg10 mi
10:50 am59 °FPartly sunny.6 mph68%30.03 "Hg10 mi
8:50 am59 °FPartly sunny.7 mph77%30.03 "Hg10 mi
7:50 am59 °FPartly sunny.7 mph77%30.01 "Hg10 mi
6:50 am59 °FHigh level clouds.7 mph77%30.01 "Hg10 mi
Weather by CustomWeather, © 2019

See weather overview